[[{"header":{"parameterUnit":"m.s-1","parameterCategory":1,"la1":30.2991,"la2":30.254,"lo1":-89.0895,"lo2":-89.0444,"dy":0.0017,"dx":0.0017,"nx":28,"ny":28,"refTime":"2025-06-10T03:00:00:Z","depth":0,"parameterNumber":2,"parameterNumberName":"U-component_of_WINDS"},"data":[0,0,0,0,0,0,0,0,0,0,0,0,0,0,0,0,0,0,0,0,0,0,0,0,0,0,0,0,0,0,0,0,0,0,0,0,0,0,0,0,0,0,0,0,0,0,0,0,0,0,0,0,0,0,0,0,0,0,0.9917,0.9918,0,0.9985,0.9986,0.9987,0.9904,0.9901,0.9898,0.9895,0.997,0.9974,0.9979,0,0,0,0,0,0,0,0,0,0,0,0,0,0.9719,0.9723,0.9917,0.9918,0.9919,0.9985,0.9986,0.9987,0.9905,0.9901,0.9898,0.9894,0.9968,0.9974,0.998,0,0,0,0,0,0,0,0,0,0,0,0,0,0.9798,0.9724,0.9917,0.9886,0.9884,0.9985,0.9986,0.9987,0.9906,0.9901,0.9897,0.9892,0.9966,0.9973,0.998,1.0117,0,0,1.0003,1.0006,0,0,0,0,0,0,0,0,0.9794,0.9805,0.989,0.9888,0.9886,0.9932,0.9943,1.0031,0.9907,0.9898,0.9895,0.989,0.9961,0.9968,0.9991,1.0121,1.0124,1.0003,1.0008,1.0011,1.0013,0,0,0,0,0,0,0,0.9788,0.9802,0.9944,0.9891,0.9889,0.9869,0.9875,0.996,0.9954,0.9898,0.9892,0.9901,0.9959,0.9985,0.9993,1.0125,1.0003,1.0009,1.0014,1.0017,1.0368,1.0373,0,0,0,0,0,0,0.9786,0.9798,0.9942,0.9946,0.9827,0.9877,0.9883,0.9922,0.9953,0.9953,0.9905,0.9897,0.9974,0.9984,0.9995,1.0156,1.0011,1.0017,1.0022,1.0363,1.0369,1.0375,0,0,0,0,0,0,0.9782,0.9799,0.9939,0.987,0.9887,0.9885,0.9928,0.9925,0.9951,0.9958,0.9957,0.9932,0.9971,0.9985,1.0087,1.0158,1.0021,1.0027,1.0357,1.0365,1.0372,1.048,0,0,0,0,0,0,0.9776,0.9798,0.985,0.9872,0.9891,1.003,0.9933,0.993,0.9963,0.9953,0.9983,0.9984,0.9969,1.0076,1.0094,1.0165,1.0033,1.0351,1.0361,1.037,1.0471,1.0491,1.0508,0,0,0,0,0,0.977,0.9879,0.9853,0.9871,0.9955,1.0034,1.0044,1.0023,0.9969,1.0021,1.0025,0.9983,1.0147,1.0087,1.0107,1.0181,1.0346,1.0358,1.0369,1.0462,1.0487,1.0508,0,0,0,0,0,0,0.9867,0.9881,0.9853,0.9972,1.0002,1.002,1.0085,1.005,1.0098,1.0087,1.006,1.0067,1.0176,1.0189,1.0122,1.0314,1.0238,1.0253,1.0302,1.0326,1.0344,1.0339,1.0039,0,0,0,0,0,0.9902,0.9964,0.9973,1.0078,1.0094,1.0087,1.0121,1.0102,1.0132,1.0145,1.0157,1.019,1.0248,1.0287,1.0342,1.0472,1.0477,1.0532,1.0551,1.0566,1.058,1.0649,1.0674,1.0411,1.0411,1.0411,0,0,0.9976,0.9991,1.0032,1.0098,1.0119,1.0184,1.0098,1.0172,1.022,1.0157,1.0253,1.0263,1.0297,1.0414,1.0466,1.0428,1.0654,1.058,1.0593,1.0598,1.0663,1.0688,1.071,1.0419,1.0418,1.0417,0,0,1.0143,1.0161,1.025,1.0272,1.0304,1.0298,1.0319,1.0342,1.0345,1.0441,1.0395,1.0452,1.0554,1.058,1.0607,1.0782,1.0745,1.0801,1.0899,1.0966,1.0987,1.1005,1.1068,1.109,1.0815,1.0815,1.0815,0,1.0232,1.0327,1.03,1.0376,1.0406,1.0349,1.0439,1.0462,1.0512,1.0534,1.049,1.0616,1.0635,1.0756,1.0798,1.0822,1.0846,1.0798,1.0986,1.1004,1.1021,1.108,1.1103,1.0821,1.0821,1.082,1.0819,0,1.0433,1.05,1.0568,1.0614,1.0652,1.0735,1.0721,1.0763,1.074,1.0739,1.0837,1.0858,1.0915,1.0942,1.0922,1.1061,1.1036,1.099,1.0912,1.1053,1.1108,1.113,1.0831,1.0829,1.0827,1.0825,0,0,1.0666,1.0694,1.072,1.074,1.077,1.0822,1.0902,1.0956,1.0992,1.1027,1.1094,1.118,1.1137,1.1167,1.1149,1.1208,1.1345,1.1154,1.1155,1.1189,1.1499,1.1534,1.1561,1.132,1.1324,1.1328,1.1496,0,1.0833,1.097,1.0947,1.108,1.1141,1.1088,1.1157,1.1184,1.1185,1.1238,1.1239,1.13,1.1239,1.1256,1.1312,1.1317,1.1407,1.1304,1.1383,1.1386,1.1376,1.1589,1.1627,1.1785,1.1518,1.1521,1.1524,0,1.1047,1.1088,1.1227,1.1246,1.1271,1.1334,1.1381,1.1432,1.1461,1.1457,1.149,1.146,1.1541,1.1461,1.1572,1.1502,1.1533,1.154,1.1545,1.1552,1.1464,1.1603,1.1835,1.1859,1.1558,1.1555,1.1553,0,1.1202,1.1292,1.1386,1.1405,1.143,1.1475,1.1488,1.1512,1.1546,1.1588,1.1609,1.166,1.1688,1.1729,1.1714,1.1658,1.1828,1.1747,1.1827,1.1828,1.1866,1.1864,1.2107,1.1886,1.1885,1.1885,1.1884,0,1.1392,1.1479,1.1456,1.1514,1.161,1.1583,1.1679,1.1685,1.1707,1.1766,1.1723,1.178,1.1756,1.1811,1.18,1.1893,1.1907,1.1906,1.1903,1.191,1.1911,1.1931,1.1919,1.1891,1.189,1.1889,1.1888,0,1.1582,1.157,1.1669,1.1684,1.1689,1.1759,1.1772,1.1827,1.1824,1.1899,1.1915,1.1911,1.1973,1.1962,1.2032,1.2024,1.214,1.2123,1.213,1.2126,1.2207,1.22,1.2472,1.2506,1.2262,1.2265,1.2267,0,1.1703,1.1769,1.179,1.1825,1.1841,1.1899,1.1932,1.1908,1.1945,1.1982,1.2032,1.209,1.2136,1.2238,1.2242,1.2295,1.2278,1.237,1.2286,1.2292,1.228,1.2276,1.2283,1.2387,1.239,1.2392,1.2394,0,1.1921,1.1911,1.196,1.2007,1.2048,1.2084,1.2116,1.2148,1.2127,1.217,1.2233,1.2268,1.2337,1.2396,1.2445,1.2459,1.2424,1.242,1.2441,1.245,1.2452,1.2452,1.2176,1.2414,1.2412,1.2411,1.241,1.2409,1.208,1.2135,1.2158,1.2214,1.2235,1.2266,1.2318,1.232,1.2371,1.2425,1.2408,1.2479,1.2505,1.2567,1.2587,1.2642,1.2608,1.264,1.2647,1.2656,1.2665,1.2442,1.2651,1.2651,1.265,1.265,1.2649,0,1.2295,1.2307,1.2358,1.2404,1.2448,1.2408,1.2441,1.2481,1.2544,1.2571,1.2615,1.2687,1.2743,1.275,1.2804,1.2847,1.2832,1.2862,1.2859,1.2862,1.2693,1.2669,1.2873,1.2873,1.2873,1.2873,1.2873,1.2873,1.2412,1.2503,1.2496,1.2597,1.2608,1.2676,1.2699,1.2727,1.2748,1.2829,1.2875,1.2878,1.2898,1.2952,1.3002,1.3002,1.3024,1.306,1.3055,1.2897,1.2874,1.2853,1.283,1.3065,1.3066,1.322,1.3221,1.3223]},{"header":{"parameterUnit":"m.s-1","parameterCategory":1,"la1":30.2991,"la2":30.254,"lo1":-89.0895,"lo2":-89.0444,"dy":0.0017,"dx":0.0017,"nx":28,"ny":28,"refTime":"2025-06-10T03:00:00:Z","depth":0,"parameterNumber":3,"parameterNumberName":"V-component_of_WINDS"},"data":[0,0,0,0,0,0,0,0,0,0,0,0,0,0,0,0,0,0,0,0,0,0,0,0,0,0,0,0,0,0,0,0,0,0,0,0,0,0,0,0,0,0,0,0,0,0,0,0,0,0,0,0,0,0,0,0,0,0,1.8232,1.8233,0,1.8376,1.8377,1.8379,1.8387,1.8385,1.8384,1.8382,1.8526,1.8532,1.8537,0,0,0,0,0,0,0,0,0,0,0,0,0,1.7959,1.7964,1.8231,1.8233,1.8235,1.8375,1.8377,1.8379,1.8387,1.8385,1.8383,1.8381,1.8525,1.8531,1.8537,0,0,0,0,0,0,0,0,0,0,0,0,0,1.8087,1.7966,1.8231,1.8256,1.826,1.8375,1.8377,1.838,1.8388,1.8385,1.8383,1.838,1.8522,1.853,1.8538,1.8637,0,0,1.8563,1.8566,0,0,0,0,0,0,0,0,1.808,1.8097,1.8251,1.8255,1.8259,1.8361,1.8334,1.8466,1.8388,1.8339,1.8382,1.8379,1.8473,1.8485,1.8517,1.8644,1.865,1.8564,1.8568,1.8572,1.8574,0,0,0,0,0,0,0,1.8071,1.8091,1.8288,1.8253,1.8258,1.8259,1.8274,1.8359,1.8418,1.8343,1.8344,1.8361,1.8475,1.851,1.8521,1.8653,1.8563,1.8571,1.8576,1.8579,1.8866,1.8868,0,0,0,0,0,0,1.8058,1.8084,1.8284,1.8293,1.8162,1.8265,1.8283,1.8331,1.8417,1.8428,1.8363,1.8361,1.8497,1.8511,1.8526,1.8647,1.8572,1.8579,1.8584,1.8863,1.8866,1.8869,0,0,0,0,0,0,1.8052,1.8076,1.8278,1.8189,1.8214,1.8273,1.8326,1.8335,1.837,1.8432,1.8442,1.8388,1.8496,1.8515,1.8609,1.8652,1.8583,1.859,1.886,1.8864,1.8868,1.889,0,0,0,0,0,0,1.8044,1.8074,1.8113,1.819,1.8219,1.8361,1.8329,1.8339,1.8384,1.8382,1.8459,1.8469,1.8495,1.8597,1.8617,1.8662,1.8597,1.8856,1.8861,1.8866,1.8885,1.8894,1.8901,0,0,0,0,0,1.8035,1.8113,1.8115,1.8139,1.827,1.8363,1.838,1.841,1.8387,1.8427,1.8466,1.8466,1.8644,1.8607,1.863,1.8677,1.8853,1.886,1.8866,1.8882,1.8892,1.8901,0,0,0,0,0,0,1.804,1.8124,1.8127,1.8233,1.8291,1.8364,1.8415,1.842,1.8485,1.8481,1.8514,1.8531,1.8625,1.866,1.8618,1.8776,1.8746,1.8757,1.875,1.8761,1.8768,1.8758,1.8603,0,0,0,0,0,1.8054,1.8124,1.8192,1.8279,1.8308,1.8357,1.8398,1.8416,1.8477,1.8501,1.8548,1.8606,1.8675,1.872,1.8787,1.889,1.8906,1.8934,1.8942,1.8948,1.8957,1.9013,1.9025,1.889,1.889,1.889,0,0,1.8083,1.8137,1.8179,1.8282,1.8329,1.8399,1.8377,1.8453,1.8505,1.8513,1.8605,1.8641,1.8708,1.8807,1.8853,1.884,1.8998,1.8956,1.896,1.8966,1.902,1.9033,1.9045,1.8894,1.8893,1.8893,0,0,1.8171,1.822,1.8297,1.8344,1.8415,1.8447,1.8465,1.8538,1.8562,1.8656,1.8663,1.8724,1.8842,1.8889,1.8928,1.9032,1.9033,1.9052,1.9094,1.9148,1.9159,1.9168,1.9204,1.9217,1.9061,1.9061,1.9061,0,1.8197,1.8305,1.8335,1.8411,1.8455,1.8466,1.8543,1.8587,1.8676,1.8706,1.8689,1.8837,1.8882,1.8992,1.9017,1.9049,1.9069,1.9044,1.9155,1.9165,1.9174,1.9209,1.9222,1.9063,1.9063,1.9063,1.9063,0,1.8333,1.8407,1.846,1.8547,1.8597,1.8673,1.8713,1.876,1.8773,1.8805,1.8899,1.8954,1.9031,1.9059,1.9072,1.917,1.9159,1.9148,1.9118,1.9189,1.9222,1.9235,1.9066,1.9065,1.9064,1.9064,0,0,1.8431,1.8532,1.8551,1.8589,1.8668,1.8725,1.88,1.8877,1.8915,1.8976,1.9039,1.9138,1.9128,1.9172,1.9191,1.9238,1.9315,1.9221,1.9223,1.9236,1.9424,1.9431,1.9446,1.9316,1.9319,1.9321,1.9418,0,1.8527,1.8663,1.8691,1.8808,1.8876,1.8885,1.8951,1.9005,1.9037,1.9097,1.9132,1.9201,1.9184,1.921,1.9257,1.9295,1.9353,1.9289,1.9373,1.9376,1.9356,1.9464,1.9472,1.9562,1.9431,1.9434,1.9435,0,1.8659,1.8722,1.8846,1.8914,1.8943,1.9002,1.9073,1.9131,1.9192,1.9212,1.926,1.9273,1.935,1.9315,1.942,1.9376,1.9412,1.9436,1.944,1.9449,1.941,1.9475,1.9591,1.9604,1.9456,1.9454,1.9453,0,1.8716,1.8833,1.8921,1.8954,1.9036,1.9076,1.9112,1.9171,1.9214,1.9276,1.9304,1.9373,1.9411,1.9464,1.9494,1.9466,1.9596,1.9565,1.9613,1.9612,1.964,1.9638,1.9763,1.9664,1.9663,1.9663,1.9663,0,1.8821,1.8896,1.8948,1.9003,1.9086,1.9117,1.9198,1.9233,1.9285,1.9345,1.9357,1.9413,1.945,1.951,1.9534,1.9616,1.9633,1.965,1.9656,1.9649,1.9647,1.9673,1.9668,1.9667,1.9666,1.9665,1.9665,0,1.89,1.8938,1.9035,1.9104,1.9123,1.9182,1.924,1.9292,1.9323,1.9399,1.9418,1.9467,1.9538,1.9574,1.9662,1.9678,1.9771,1.9773,1.9751,1.9753,1.9799,1.9794,1.9946,1.9966,1.9853,1.9854,1.9855,0,1.8965,1.9022,1.9097,1.9139,1.9176,1.9242,1.9287,1.9319,1.9364,1.9436,1.9479,1.9551,1.9611,1.9725,1.9767,1.9834,1.9837,1.9885,1.9847,1.9838,1.9837,1.9833,1.9838,1.9892,1.9893,1.9894,1.9895,0,1.9075,1.909,1.9154,1.9224,1.9277,1.9334,1.9389,1.9422,1.9462,1.9512,1.9586,1.9632,1.9722,1.9793,1.9863,1.9898,1.9903,1.9906,1.9921,1.9915,1.99,1.9908,1.9769,1.9903,1.9902,1.9901,1.9901,1.9901,1.9148,1.92,1.926,1.933,1.9375,1.9426,1.9478,1.9516,1.9578,1.9655,1.9669,1.9747,1.9804,1.9898,1.9935,1.9995,1.9985,2.0006,2.0011,2.0016,2.0018,1.989,2.0008,2.0008,2.0008,2.0008,2.0008,0,1.9259,1.9297,1.9362,1.9439,1.9494,1.9494,1.9554,1.96,1.9668,1.9722,1.978,1.9863,1.9932,1.9978,2.0047,2.0086,2.009,2.0103,2.01,2.0108,2.0024,2.0005,2.0099,2.0099,2.0099,2.0099,2.0099,2.0099,1.9322,1.9409,1.9431,1.9539,1.9577,1.9654,1.9688,1.9735,1.9777,1.987,1.9927,1.9957,2.0008,2.008,2.0142,2.0154,2.0178,2.0191,2.0203,2.0124,2.0114,2.0105,2.0087,2.0197,2.0197,2.0282,2.0283,2.0283]}]]